Location: Quedlinburg
(51.7921°N, 11.1414°E)
Time: 05:19:20
(UTC+02:00)

STRAND 1 - Pass Details

Date: 15 March 2026
Orbit: 761 x 775 km, 98.4° (Epoch: 16 April)

Event Time Altitude Azimuth Distance (km) Brightness Sun altitude
Rises 04:21:36 0° 143° (SE) 3,239 ? -20.2°
Reaches altitude 10° 04:23:59 10° 138° (SE) 2,314 ? -19.9°
Maximum altitude 04:28:49 46° 66° (ENE) 1,038 ? -19.2°
Drops below altitude 10° 04:33:41 10° 355° (N) 2,321 ? -18.5°
Sets 04:36:03 0° 349° (N) 3,249 ? -18.1°
